DateTimeUTC,F1_A11,F1_S11,BsB_S11,BsG_S11,BsR_S11,BbsB_S11,BbsG_S11,BbsR_S11,BaB_A11,BaG_A11,BaR_A11,Tu_S11,T_S11,Uu_S11,U_S11,P_S11,T1_A11
2021-11-05T09:00:00Z,00000200,21000000,,,,,,,-000.08,0000.11,-000.18,18.7,25.8,,00.0,0650.2,31.1
2021-11-05T09:01:00Z,00000200,21000000,,,,,,,0000.00,0000.09,-000.10,18.7,25.8,,00.0,0650.2,31.1
2021-11-05T09:02:00Z,00000200,21000000,,,,,,,-000.22,-000.30,0000.16,18.7,25.8,,00.0,0650.2,31.1
2021-11-05T09:03:00Z,00000200,61000000,,,,,,,0000.14,0000.28,-000.00,18.7,25.8,,00.0,0650.2,31.1
2021-11-05T09:04:00Z,00000200,41000000,-000.52,0000.06,0000.42,0000.03,0000.08,0000.10,-000.20,-000.11,-000.26,18.7,25.5,,00.0,0651.1,31.1
2021-11-05T09:05:00Z,00000200,01000000,-001.05,-000.01,0000.10,0000.20,-000.00,0000.35,-000.14,-000.16,0000.24,18.8,25.5,,00.0,0651.2,31.1
2021-11-05T09:06:00Z,00000200,01000000,-000.44,0000.21,0000.14,-000.36,-000.11,-000.24,0000.33,0000.14,0000.00,18.9,25.5,,00.0,0651.1,31.1
2021-11-05T09:07:00Z,00000200,01000000,-000.04,0000.30,0000.11,0000.52,-000.12,0000.10,-000.22,0000.18,-000.09,19.0,25.5,,00.0,0651.1,31.1
2021-11-05T09:08:00Z,00000200,01000000,0000.62,0000.10,0000.27,-000.28,0000.30,0000.03,0000.02,-000.24,0000.34,19.0,25.6,,00.0,0651.2,31.1
2021-11-05T09:09:00Z,00000200,01000000,-000.36,0000.24,0000.10,0000.28,-000.00,0000.17,0000.07,0000.15,-000.14,19.1,25.6,,00.0,0651.2,31.2
2021-11-05T09:10:00Z,00000200,01000000,-001.05,-000.06,-000.04,0000.19,0000.06,0000.14,0000.14,-000.02,0000.30,19.2,25.6,,00.0,0651.2,31.1
2021-11-05T09:11:00Z,00000200,01000000,0000.36,0000.20,-000.36,-000.20,0000.27,-000.01,-000.12,0000.08,-000.41,19.2,25.7,,00.0,0651.2,31.2
2021-11-05T09:12:00Z,00000200,01000000,0000.28,0000.28,-000.12,0000.09,-000.25,0000.06,-000.19,0000.11,0000.14,19.3,25.7,,00.0,0651.1,31.2
2021-11-05T09:13:00Z,00000200,01000000,0000.33,0000.23,-000.05,0000.14,0000.03,0000.05,0000.14,-000.15,-000.15,19.2,25.6,,00.0,0651.2,31.1
2021-11-05T09:14:00Z,00000200,01000000,0000.03,0000.11,-000.04,0000.27,-000.20,-000.01,-000.01,-000.35,-000.01,19.1,25.6,,00.0,0651.2,31.1
2021-11-05T09:15:00Z,00000200,01000000,-000.63,0000.21,0000.28,0000.23,0000.01,0000.40,-000.29,0000.18,-000.24,19.0,25.6,,00.0,0651.2,31.1
2021-11-05T09:16:00Z,00000200,01000000,-000.41,0000.38,-000.30,0000.02,-000.10,0000.04,0000.22,-000.20,0000.12,18.9,25.6,,00.0,0651.2,31.1
2021-11-05T09:17:00Z,00000200,01000000,0000.13,0000.01,-000.20,0000.64,-000.09,0000.01,-000.21,-000.10,-000.43,18.9,25.5,,00.0,0651.2,31.1
2021-11-05T09:18:00Z,00000200,01000000,0000.28,0000.17,-000.21,0000.39,0000.11,-000.21,-000.01,-000.21,0000.29,18.9,25.5,,00.0,0651.2,31.1
2021-11-05T09:19:00Z,00000200,01000000,0000.95,0000.09,-000.12,0000.32,0000.03,0000.04,-000.04,0000.20,-000.09,18.9,25.5,,00.0,0651.3,31.1
2021-11-05T09:20:00Z,00000200,01000000,-000.25,0000.14,-000.22,0000.64,-000.11,0000.18,0000.03,0000.25,-000.14,18.9,25.5,,00.0,0651.3,31.1
2021-11-05T09:21:00Z,00000200,01000000,0000.17,0000.28,-000.02,0000.06,-000.24,-000.15,-000.00,-000.43,0000.07,19.0,25.5,,00.0,0651.2,31.1
2021-11-05T09:22:00Z,00000200,01000000,0000.26,0000.23,0000.25,0000.32,0000.02,-000.25,-000.29,0000.16,0000.18,19.1,25.6,,00.0,0651.2,31.1
2021-11-05T09:23:00Z,00000200,01000000,-000.05,0000.06,0000.24,0000.09,-000.19,0000.42,0000.08,-000.18,-000.06,19.1,25.6,,00.0,0651.3,31.2
2021-11-05T09:24:00Z,00000200,01000000,-000.75,0000.00,0000.12,0000.01,0000.26,-000.09,0000.07,0000.09,0000.06,19.2,25.6,,00.0,0651.3,31.2
2021-11-05T09:25:00Z,00000200,01000000,-000.07,0000.39,0000.09,0000.46,0000.07,-000.04,-000.11,0000.11,-000.24,19.3,25.7,,00.0,0651.3,31.2
2021-11-05T09:26:00Z,00000200,01000000,0000.42,0000.13,-000.11,0000.11,0000.01,0000.20,0000.20,-000.07,-000.04,19.3,25.7,,00.0,0651.4,31.2
2021-11-05T09:27:00Z,00000200,01000000,0000.38,0000.02,0000.07,-000.50,0000.08,0000.26,-000.34,-000.42,0000.28,19.4,25.7,,00.0,0651.4,31.2
2021-11-05T09:28:00Z,00000200,01000000,0000.34,0000.03,0000.06,0000.30,-000.20,0000.28,0000.34,0000.16,-000.21,19.3,25.7,,00.0,0651.4,31.2
2021-11-05T09:29:00Z,00000200,01000000,-000.30,0000.30,0000.07,-000.05,0000.08,-000.04,-000.07,0000.19,0000.07,19.2,25.7,,00.0,0651.3,31.2
2021-11-05T09:30:00Z,00000200,01000000,-000.01,0000.15,0000.07,0000.01,0000.22,0000.41,0000.14,-000.22,-000.15,19.2,25.6,,00.0,0651.3,31.1
2021-11-05T09:31:00Z,00000200,01000000,-000.27,0000.02,0000.18,0000.61,0000.05,0000.32,-000.08,0000.09,0000.22,19.1,25.6,,00.0,0651.3,31.1
2021-11-05T09:32:00Z,00000200,01000000,-000.66,0000.06,0000.01,0000.38,-000.16,0000.13,-000.16,0000.09,0000.04,19.0,25.6,,00.0,0651.3,31.1
2021-11-05T09:33:00Z,00000200,01000000,-000.42,0000.06,0000.07,0000.42,-000.06,-000.09,0000.24,0000.10,-000.19,19.0,25.5,,00.0,0651.3,31.1
2021-11-05T09:34:00Z,00000200,01000000,-001.01,0000.03,-000.10,0000.02,0000.18,-000.04,-000.04,-000.10,0000.21,19.0,25.6,,00.0,0651.3,31.1
2021-11-05T09:35:00Z,00000200,01000000,-000.39,0000.32,-000.26,0000.64,-000.17,-000.10,0000.01,0000.24,0000.13,19.1,25.6,,00.0,0651.3,31.1
2021-11-05T09:36:00Z,00000200,01000000,-000.34,0000.00,-000.13,0000.22,0000.02,0000.23,-000.26,0000.23,-000.05,19.1,25.6,,00.0,0651.3,31.2
2021-11-05T09:37:00Z,00000200,01000000,0000.96,0000.07,-000.09,0000.32,0000.06,0000.08,0000.52,-000.30,0000.23,19.2,25.6,,00.0,0651.3,31.1
2021-11-05T09:38:00Z,00000200,01000000,0000.18,0000.33,0000.09,0000.30,0000.05,0000.29,0000.15,0000.22,-000.17,19.3,25.7,,00.0,0651.3,31.1
2021-11-05T09:39:00Z,00000200,01000000,0000.19,-000.02,-000.01,0000.45,0000.08,-000.22,-000.35,0000.17,-000.14,19.3,25.7,,00.0,0651.4,31.2
2021-11-05T09:40:00Z,00000200,01000000,0000.05,0000.32,0000.20,0000.31,-000.09,-000.05,0000.24,0000.29,0000.42,19.4,25.7,,00.0,0651.4,31.2
2021-11-05T09:41:00Z,00000200,01000000,0000.21,0000.03,-000.05,-000.29,0000.00,-000.12,0000.06,-000.00,-000.41,19.4,25.8,,00.0,0651.4,31.2
2021-11-05T09:42:00Z,00000200,01000000,0000.23,0000.05,-000.19,0000.02,0000.01,-000.22,0000.19,-000.19,0000.43,19.3,25.8,,00.0,0651.4,31.1
2021-11-05T09:43:00Z,00000200,01000000,-000.29,0000.11,0000.23,0000.52,0000.14,-000.04,-000.21,-000.11,-000.29,19.3,25.7,,00.0,0651.4,31.2
2021-11-05T09:44:00Z,00000200,01000000,-000.13,0000.24,0000.05,0000.43,-000.04,0000.13,-000.14,-000.10,-000.07,19.2,25.7,,00.0,0651.4,31.1
2021-11-05T09:45:00Z,00000200,01000000,-000.64,0000.05,0000.28,0000.56,-000.15,0000.10,-000.06,0000.05,-000.02,19.1,25.6,,00.0,0651.4,31.1
2021-11-05T09:46:00Z,00000200,01000000,-000.65,0000.08,0000.20,-000.20,0000.04,0000.15,0000.13,-000.33,-000.00,19.0,25.6,,00.0,0651.4,31.1
2021-11-05T09:47:00Z,00000200,01000000,-000.22,0000.33,0000.10,0000.14,-000.13,-000.15,0000.14,0000.39,0000.29,19.0,25.5,,00.0,0651.4,31.1
2021-11-05T09:48:00Z,00000200,01000000,0000.34,-000.05,0000.05,-000.08,0000.24,-000.13,0001.50,0001.75,0001.13,18.9,25.5,,00.0,0651.4,31.1
2021-11-05T09:49:00Z,00000200,01000000,0011.35,0008.79,0005.10,0002.76,0002.61,0001.77,0106.33,0098.49,0080.65,19.0,25.5,,00.0,0651.4,31.1
2021-11-05T09:50:00Z,00000200,01000000,0017.94,0014.43,0009.40,0004.39,0003.20,0002.22,0191.78,0179.31,0147.40,19.0,25.5,,00.0,0651.4,31.1
2021-11-05T09:51:00Z,00000200,01000000,0024.59,0018.27,0012.25,0005.36,0004.02,0003.50,0248.75,0232.97,0191.24,19.1,25.5,,00.0,0651.4,31.1
2021-11-05T09:52:00Z,00000200,01000000,0028.90,0021.88,0013.66,0005.93,0005.15,0003.51,0296.30,0277.08,0228.36,19.1,25.6,,00.0,0651.4,31.2
2021-11-05T09:53:00Z,00000200,01000000,0026.33,0020.01,0013.39,0005.78,0005.09,0003.59,0257.70,0241.49,0199.52,19.2,25.6,,00.0,0651.4,31.1
2021-11-05T09:54:00Z,00000200,01000000,0034.33,0026.87,0017.45,0006.98,0005.90,0004.34,0326.50,0306.38,0254.24,19.3,25.7,,00.0,0651.4,31.2
2021-11-05T09:55:00Z,00000200,01000000,0037.79,0028.99,0018.36,0007.19,0006.54,0005.03,0354.90,0334.00,0277.65,19.3,25.7,,00.0,0651.4,31.2
2021-11-05T09:56:00Z,00000200,01000000,0015.42,0011.93,0007.47,0003.40,0002.56,0002.04,0159.06,0150.49,0125.50,19.4,25.7,,00.0,0651.4,31.2
2021-11-05T09:57:00Z,00000200,41000000,,,,,,,0023.57,0022.49,0018.81,19.4,25.8,,00.0,0651.4,31.2
2021-11-05T09:58:00Z,00000200,61000000,,,,,,,0001.98,0001.95,0001.28,19.1,25.8,,00.0,0650.5,31.1
2021-11-05T09:59:00Z,00000200,21000000,,,,,,,0001.57,0001.31,0001.06,19.1,25.9,,00.0,0650.5,31.1
